Location: Artiguedieu
(43.5000°N, 0.5454°E)
Time: 20:56:37
(UTC+00:00)

Transit 2A - Pass Details

Date: 28 July 2021
Orbit: 594 x 964 km, 66.7° (Epoch: 28 September)

Event Time Altitude Azimuth Distance (km) Brightness Sun altitude
Rises 14:28:16 0° 336° (NNW) 3,180 9.2 51.1°
Reaches altitude 10° 14:30:57 10° 350° (N) 2,318 8.5 50.6°
Maximum altitude 14:35:23 26° 46° (NE) 1,581 7.6 49.9°
Drops below altitude 10° 14:40:09 10° 101° (E) 2,516 8.5 49.1°
Sets 14:43:10 0° 114° (ESE) 3,509 9.1 48.6°
